Location: ???
(60.6398°N, 46.9067°E)
Time: 18:27:04
(UTC+00:00)

Meteor 1-11 Rocket - Pass Details

Date: 08 December 2019
Orbit: 831 x 916 km, 81.2° (Epoch: 17 January)

Event Time Altitude Azimuth Distance (km) Brightness Sun altitude
Rises 14:31:48 0° 342° (NNW) 3,555 7.0 -18.2°
Reaches altitude 10° 14:34:17 10° 339° (NNW) 2,616 6.3 -18.5°
Maximum altitude 14:40:09 59° 262° (W) 1,054 4.5 -19.2°
Drops below altitude 10° 14:45:59 10° 184° (S) 2,605 6.4 -19.9°
Sets 14:48:29 0° 181° (S) 3,538 7.1 -20.2°
